status,avgMeasuredTime,avgSpeed,extID,medianMeasuredTime,TIMESTAMP,vehicleCount,_id,REPORT_ID
OK,182,43,960,182,2014-08-01T08:00:00,3,20747015,195096
OK,150,52,960,150,2014-08-01T08:10:00,4,20747837,195096
OK,158,50,960,158,2014-08-01T08:15:00,3,20748286,195096
OK,159,49,960,159,2014-08-01T08:20:00,3,20748735,195096
OK,159,49,960,159,2014-08-01T08:25:00,3,20749184,195096
OK,136,58,960,136,2014-08-01T08:30:00,2,20749633,195096
OK,143,55,960,143,2014-08-01T08:35:00,3,20750082,195096
OK,149,53,960,149,2014-08-01T08:40:00,2,20750531,195096
OK,137,57,960,137,2014-08-01T08:45:00,2,20750980,195096
OK,125,63,960,125,2014-08-01T08:50:00,1,20751429,195096
OK,130,61,960,130,2014-08-01T08:55:00,4,20751878,195096
OK,130,61,960,130,2014-08-01T09:00:00,5,20752327,195096
OK,144,55,960,144,2014-08-01T09:05:00,2,20752776,195096
OK,147,53,960,147,2014-08-01T09:10:00,2,20753225,195096
OK,145,54,960,145,2014-08-01T09:20:00,8,20754123,195096
OK,124,63,960,124,2014-08-01T09:25:00,5,20754572,195096
OK,131,60,960,131,2014-08-01T09:30:00,3,20755021,195096
OK,141,56,960,141,2014-08-01T09:35:00,2,20755470,195096
OK,143,55,960,143,2014-08-01T09:40:00,1,20755919,195096
OK,137,57,960,137,2014-08-01T09:45:00,2,20756368,195096
OK,144,55,960,144,2014-08-01T09:50:00,4,20756817,195096
OK,153,51,960,153,2014-08-01T09:55:00,5,20757266,195096
OK,133,59,960,133,2014-08-01T10:00:00,3,20757715,195096
OK,120,66,960,120,2014-08-01T10:05:00,2,20758164,195096
OK,158,50,960,158,2014-08-01T10:15:00,3,20759062,195096
OK,158,50,960,158,2014-08-01T10:20:00,3,20759511,195096
OK,130,61,960,130,2014-08-01T10:25:00,2,20759960,195096
OK,121,65,960,121,2014-08-01T10:30:00,1,20760409,195096
OK,142,55,960,142,2014-08-01T10:35:00,1,20760858,195096
OK,133,59,960,133,2014-08-01T10:40:00,5,20761307,195096
OK,129,61,960,129,2014-08-01T10:45:00,6,20761756,195096
OK,150,52,960,150,2014-08-01T10:50:00,7,20762205,195096
OK,150,52,960,150,2014-08-01T10:55:00,9,20762654,195096
OK,147,53,960,147,2014-08-01T11:00:00,4,20763103,195096
OK,151,52,960,151,2014-08-01T11:05:00,1,20763552,195096
OK,147,53,960,147,2014-08-01T11:10:00,4,20764001,195096
OK,136,58,960,136,2014-08-01T11:15:00,6,20764449,195096
OK,144,55,960,144,2014-08-01T11:20:00,8,20764898,195096
OK,146,54,960,146,2014-08-01T11:25:00,8,20765347,195096
OK,137,57,960,137,2014-08-01T11:30:00,4,20765796,195096
OK,136,58,960,136,2014-08-01T11:35:00,3,20766245,195096
OK,136,58,960,136,2014-08-01T11:40:00,3,20766694,195096
OK,138,57,960,138,2014-08-01T11:45:00,3,20767143,195096
OK,144,55,960,144,2014-08-01T11:50:00,4,20767592,195096
OK,150,52,960,150,2014-08-01T11:55:00,2,20768041,195096
OK,127,62,960,127,2014-08-01T12:00:00,2,20768490,195096
OK,150,52,960,150,2014-08-01T12:10:00,5,20769388,195096
OK,155,51,960,155,2014-08-01T12:15:00,1,20769837,195096
OK,155,51,960,155,2014-08-01T12:20:00,0,20770286,195096
OK,129,61,960,129,2014-08-01T12:25:00,2,20770735,195096
OK,129,61,960,129,2014-08-01T12:30:00,6,20771184,195096
OK,127,62,960,127,2014-08-01T12:35:00,6,20771633,195096
OK,127,62,960,127,2014-08-01T12:40:00,3,20772082,195096
OK,141,56,960,141,2014-08-01T12:45:00,2,20772531,195096
OK,151,52,960,151,2014-08-01T12:50:00,3,20772980,195096
OK,141,56,960,141,2014-08-01T12:55:00,2,20773429,195096
OK,161,49,960,161,2014-08-01T13:00:00,2,20773878,195096
OK,132,60,960,132,2014-08-01T13:05:00,5,20774327,195096
OK,132,60,960,132,2014-08-01T13:10:00,5,20774776,195096
OK,156,50,960,156,2014-08-01T13:15:00,9,20775225,195096
OK,149,53,960,149,2014-08-01T13:20:00,9,20775674,195096
OK,134,59,960,134,2014-08-01T13:25:00,6,20776123,195096
OK,131,60,960,131,2014-08-01T13:30:00,10,20776572,195096
OK,131,60,960,131,2014-08-01T13:35:00,10,20777021,195096
OK,136,58,960,136,2014-08-01T13:40:00,6,20777470,195096
OK,136,58,960,136,2014-08-01T13:45:00,6,20777919,195096
OK,133,59,960,133,2014-08-01T13:50:00,8,20778368,195096
OK,132,60,960,132,2014-08-01T14:00:00,3,20779266,195096
OK,156,50,960,156,2014-08-01T14:05:00,8,20779715,195096
OK,150,52,960,150,2014-08-01T14:10:00,8,20780164,195096
OK,126,62,960,126,2014-08-01T14:15:00,3,20780613,195096
OK,126,62,960,126,2014-08-01T14:20:00,5,20781062,195096
OK,151,52,960,151,2014-08-01T14:25:00,3,20781511,195096
OK,124,63,960,124,2014-08-01T14:30:00,1,20781960,195096
OK,121,65,960,121,2014-08-01T14:35:00,1,20782409,195096
OK,125,63,960,125,2014-08-01T14:40:00,3,20782858,195096
OK,140,56,960,140,2014-08-01T14:45:00,5,20783307,195096
OK,156,50,960,156,2014-08-01T14:50:00,3,20783756,195096
OK,125,63,960,125,2014-08-01T15:00:00,3,20784654,195096
OK,126,62,960,126,2014-08-01T15:05:00,4,20785103,195096
OK,128,61,960,128,2014-08-01T15:10:00,4,20785552,195096
OK,129,61,960,129,2014-08-01T15:15:00,9,20786001,195096
OK,129,61,960,129,2014-08-01T15:20:00,9,20786450,195096
OK,134,59,960,134,2014-08-01T15:25:00,4,20786899,195096
OK,137,57,960,137,2014-08-01T15:30:00,5,20787348,195096
OK,126,62,960,126,2014-08-01T15:35:00,6,20787797,195096
OK,117,67,960,117,2014-08-01T15:40:00,4,20788246,195096
OK,132,60,960,132,2014-08-01T15:45:00,2,20788695,195096
OK,117,67,960,117,2014-08-01T15:50:00,3,20789144,195096
OK,119,66,960,119,2014-08-01T15:55:00,3,20789593,195096
OK,136,58,960,136,2014-08-01T16:00:00,2,20790042,195096
OK,149,53,960,149,2014-08-01T16:05:00,2,20790491,195096
OK,145,54,960,145,2014-08-01T16:10:00,0,20790940,195096
OK,145,54,960,145,2014-08-01T16:15:00,0,20791389,195096
OK,148,53,960,148,2014-08-01T16:20:00,3,20791838,195096
OK,126,62,960,126,2014-08-01T16:25:00,7,20792287,195096
OK,124,63,960,124,2014-08-01T16:30:00,6,20792736,195096
OK,120,66,960,120,2014-08-01T16:35:00,2,20793185,195096
OK,112,70,960,112,2014-08-01T16:40:00,2,20793634,195096
OK,121,65,960,121,2014-08-01T16:45:00,2,20794083,195096
OK,141,56,960,141,2014-08-01T16:50:00,1,20794532,195096
OK,141,56,960,141,2014-08-01T16:55:00,0,20794981,195096
OK,141,56,960,141,2014-08-01T17:00:00,0,20795430,195096
OK,141,56,960,141,2014-08-01T17:05:00,0,20795879,195096
OK,156,50,960,156,2014-08-01T17:10:00,1,20796328,195096
OK,137,57,960,137,2014-08-01T17:15:00,2,20796777,195096
OK,122,65,960,122,2014-08-01T17:20:00,3,20797226,195096
OK,127,62,960,127,2014-08-01T17:25:00,2,20797675,195096
OK,122,65,960,122,2014-08-01T17:30:00,0,20798124,195096
OK,122,65,960,122,2014-08-01T17:35:00,0,20798573,195096
OK,122,65,960,122,2014-08-01T17:40:00,0,20799022,195096
OK,122,65,960,122,2014-08-01T17:45:00,0,20799471,195096
OK,122,65,960,122,2014-08-01T17:50:00,0,20799920,195096
OK,122,65,960,122,2014-08-01T17:55:00,0,20800369,195096
OK,105,75,960,105,2014-08-01T18:00:00,1,20800818,195096
OK,105,75,960,105,2014-08-01T18:05:00,1,20801267,195096
OK,105,75,960,105,2014-08-01T18:10:00,0,20801716,195096
OK,105,75,960,105,2014-08-01T18:15:00,0,20802165,195096
OK,105,75,960,105,2014-08-01T18:20:00,0,20802614,195096
OK,136,58,960,136,2014-08-01T18:25:00,1,20803063,195096
OK,136,58,960,136,2014-08-01T18:30:00,1,20803512,195096
OK,136,58,960,136,2014-08-01T18:35:00,0,20803961,195096
OK,128,61,960,128,2014-08-01T18:40:00,2,20804410,195096
OK,129,61,960,129,2014-08-01T18:45:00,1,20804859,195096
OK,142,55,960,142,2014-08-01T18:50:00,2,20805308,195096
OK,137,57,960,137,2014-08-01T18:55:00,3,20805757,195096
OK,112,70,960,112,2014-08-01T19:00:00,1,20806206,195096
OK,117,67,960,117,2014-08-01T19:05:00,1,20806655,195096
OK,117,67,960,117,2014-08-01T19:10:00,1,20807104,195096
OK,117,67,960,117,2014-08-01T19:15:00,0,20807553,195096
OK,127,62,960,127,2014-08-01T19:20:00,1,20808002,195096
OK,127,62,960,127,2014-08-01T19:25:00,1,20808451,195096
OK,127,62,960,127,2014-08-01T19:30:00,0,20808900,195096
OK,127,62,960,127,2014-08-01T19:35:00,0,20809349,195096
OK,127,62,960,127,2014-08-01T19:40:00,0,20809798,195096
OK,127,62,960,127,2014-08-01T19:45:00,0,20810247,195096
OK,127,62,960,127,2014-08-01T19:50:00,0,20810696,195096
OK,127,62,960,127,2014-08-01T19:55:00,0,20811145,195096
OK,127,62,960,127,2014-08-01T22:00:00,0,20816874,195096
OK,121,65,960,121,2014-08-02T00:00:00,1,20823313,195096
OK,121,65,960,121,2014-08-02T00:05:00,0,20823762,195096
OK,121,65,960,121,2014-08-02T00:10:00,0,20824211,195096
OK,121,65,960,121,2014-08-02T00:15:00,0,20824660,195096
OK,121,65,960,121,2014-08-02T00:20:00,0,20825109,195096
OK,121,65,960,121,2014-08-02T00:25:00,0,20825558,195096
OK,121,65,960,121,2014-08-02T00:30:00,0,20826007,195096
OK,121,65,960,121,2014-08-02T00:35:00,0,20826456,195096
OK,94,84,960,94,2014-08-02T00:40:00,1,20826905,195096
OK,94,84,960,94,2014-08-02T00:45:00,1,20827354,195096
OK,94,84,960,94,2014-08-02T00:50:00,0,20827803,195096
OK,94,84,960,94,2014-08-02T00:55:00,0,20828252,195096
OK,130,61,960,130,2014-08-02T01:00:00,1,20828701,195096
OK,83,95,960,83,2014-08-02T01:05:00,1,20829150,195096
OK,119,66,960,119,2014-08-02T01:10:00,2,20829599,195096
OK,155,51,960,155,2014-08-02T01:15:00,0,20830048,195096
OK,155,51,960,155,2014-08-02T01:20:00,0,20830497,195096
OK,102,77,960,102,2014-08-02T01:25:00,3,20830946,195096
OK,149,53,960,149,2014-08-02T01:30:00,1,20831395,195096
OK,149,53,960,149,2014-08-02T01:35:00,0,20831844,195096
OK,149,53,960,149,2014-08-02T01:40:00,0,20832293,195096
OK,124,63,960,124,2014-08-02T01:45:00,1,20832742,195096
OK,124,63,960,124,2014-08-02T01:50:00,1,20833191,195096
OK,124,63,960,124,2014-08-02T01:55:00,0,20833640,195096
OK,124,63,960,124,2014-08-02T02:00:00,0,20834089,195096
OK,124,63,960,124,2014-08-02T02:05:00,0,20834538,195096
OK,124,63,960,124,2014-08-02T02:10:00,0,20834987,195096
OK,124,63,960,124,2014-08-02T02:15:00,0,20835436,195096
OK,124,63,960,124,2014-08-02T02:20:00,0,20835885,195096
OK,124,63,960,124,2014-08-02T02:25:00,0,20836334,195096
OK,124,63,960,124,2014-08-02T02:30:00,0,20836783,195096
OK,124,63,960,124,2014-08-02T02:35:00,0,20837232,195096
OK,124,63,960,124,2014-08-02T02:40:00,0,20837681,195096
OK,124,63,960,124,2014-08-02T02:45:00,0,20838130,195096
OK,124,63,960,124,2014-08-02T02:50:00,0,20838579,195096
OK,124,63,960,124,2014-08-02T02:55:00,0,20839028,195096
OK,124,63,960,124,2014-08-02T03:00:00,0,20839477,195096
OK,124,63,960,124,2014-08-02T03:05:00,0,20839926,195096
OK,124,63,960,124,2014-08-02T03:10:00,0,20840375,195096
OK,124,63,960,124,2014-08-02T03:15:00,0,20840824,195096
OK,124,63,960,124,2014-08-02T03:20:00,0,20841273,195096
OK,124,63,960,124,2014-08-02T03:25:00,0,20841722,195096
OK,124,63,960,124,2014-08-02T03:30:00,0,20842171,195096
OK,124,63,960,124,2014-08-02T03:35:00,0,20842620,195096
OK,124,63,960,124,2014-08-02T03:40:00,0,20843069,195096
OK,124,63,960,124,2014-08-02T03:45:00,0,20843518,195096
OK,124,63,960,124,2014-08-02T03:50:00,0,20843967,195096
OK,124,63,960,124,2014-08-02T03:55:00,0,20844416,195096
OK,124,63,960,124,2014-08-02T06:00:00,0,20851870,195096
OK,124,63,960,124,2014-08-02T06:05:00,1,20852319,195096
OK,133,59,960,133,2014-08-02T06:10:00,1,20852768,195096
OK,133,59,960,133,2014-08-02T06:15:00,1,20853217,195096
OK,133,59,960,133,2014-08-02T06:20:00,0,20853666,195096
OK,133,59,960,133,2014-08-02T06:25:00,0,20854115,195096
OK,137,57,960,137,2014-08-02T06:30:00,1,20854564,195096
OK,137,57,960,137,2014-08-02T06:35:00,1,20855013,195096
OK,137,57,960,137,2014-08-02T06:40:00,0,20855462,195096
OK,137,57,960,137,2014-08-02T06:45:00,0,20855911,195096
OK,137,57,960,137,2014-08-02T06:50:00,0,20856360,195096
OK,137,57,960,137,2014-08-02T06:55:00,0,20856809,195096
OK,137,57,960,137,2014-08-02T07:00:00,0,20857258,195096
OK,137,57,960,137,2014-08-02T07:05:00,0,20857707,195096
OK,144,55,960,144,2014-08-02T07:10:00,1,20858156,195096
OK,129,61,960,129,2014-08-02T07:15:00,2,20858605,195096
OK,118,67,960,118,2014-08-02T07:20:00,1,20859054,195096
OK,118,67,960,118,2014-08-02T07:25:00,0,20859503,195096
OK,118,67,960,118,2014-08-02T07:30:00,0,20859952,195096
OK,118,67,960,118,2014-08-02T07:35:00,0,20860401,195096
OK,118,67,960,118,2014-08-02T07:40:00,0,20860850,195096
OK,118,67,960,118,2014-08-02T07:45:00,0,20861299,195096
OK,118,67,960,118,2014-08-02T07:50:00,0,20861748,195096
OK,118,67,960,118,2014-08-02T07:55:00,0,20862197,195096
OK,118,67,960,118,2014-08-02T08:00:00,0,20862646,195096
OK,118,67,960,118,2014-08-02T08:05:00,0,20863095,195096
OK,118,67,960,118,2014-08-02T08:10:00,0,20863544,195096
OK,123,64,960,123,2014-08-02T08:15:00,1,20863993,195096
OK,123,64,960,123,2014-08-02T08:20:00,0,20864442,195096
OK,123,64,960,123,2014-08-02T08:25:00,0,20864891,195096
OK,122,65,960,122,2014-08-02T08:30:00,1,20865340,195096
OK,135,58,960,135,2014-08-02T08:35:00,2,20865789,195096
OK,143,55,960,143,2014-08-02T08:40:00,3,20866238,195096
OK,142,55,960,142,2014-08-02T08:45:00,0,20866687,195096
OK,142,55,960,142,2014-08-02T08:50:00,0,20867136,195096
OK,142,55,960,142,2014-08-02T08:55:00,0,20867585,195096
OK,142,55,960,142,2014-08-02T09:00:00,0,20868034,195096
OK,127,62,960,127,2014-08-02T09:05:00,2,20868483,195096
OK,127,62,960,127,2014-08-02T09:10:00,2,20868932,195096
OK,111,71,960,111,2014-08-02T09:15:00,1,20869381,195096
OK,144,55,960,144,2014-08-02T09:20:00,3,20869830,195096
OK,134,59,960,134,2014-08-02T09:25:00,4,20870279,195096
OK,125,63,960,125,2014-08-02T09:30:00,1,20870728,195096
OK,125,63,960,125,2014-08-02T09:35:00,0,20871177,195096
OK,140,56,960,140,2014-08-02T09:40:00,1,20871626,195096
OK,149,53,960,149,2014-08-02T09:45:00,3,20872075,195096
OK,158,50,960,158,2014-08-02T09:50:00,2,20872524,195096
OK,149,53,960,149,2014-08-02T09:55:00,0,20872973,195096
OK,149,53,960,149,2014-08-02T10:00:00,0,20873422,195096
OK,149,53,960,149,2014-08-02T10:05:00,0,20873871,195096
OK,149,53,960,149,2014-08-02T10:10:00,0,20874320,195096
OK,149,53,960,149,2014-08-02T10:15:00,0,20874769,195096
OK,149,53,960,149,2014-08-02T10:20:00,0,20875218,195096
OK,155,51,960,155,2014-08-02T10:25:00,2,20875667,195096
OK,155,51,960,155,2014-08-02T10:30:00,2,20876116,195096
OK,155,51,960,155,2014-08-02T10:35:00,0,20876565,195096
OK,137,57,960,137,2014-08-02T10:40:00,3,20877014,195096
OK,137,57,960,137,2014-08-02T10:45:00,3,20877463,195096
OK,137,57,960,137,2014-08-02T10:50:00,0,20877912,195096
OK,134,59,960,134,2014-08-02T10:55:00,2,20878361,195096
OK,134,59,960,134,2014-08-02T11:00:00,2,20878810,195096
OK,131,60,960,131,2014-08-02T11:05:00,2,20879259,195096
OK,137,57,960,137,2014-08-02T11:10:00,3,20879708,195096
OK,148,53,960,148,2014-08-02T11:15:00,0,20880157,195096
OK,148,53,960,148,2014-08-02T11:20:00,0,20880606,195096
OK,148,53,960,148,2014-08-02T11:25:00,0,20881055,195096
OK,137,57,960,137,2014-08-02T11:30:00,1,20881504,195096
OK,137,57,960,137,2014-08-02T11:35:00,3,20881953,195096
OK,134,59,960,134,2014-08-02T11:40:00,3,20882402,195096
OK,119,66,960,119,2014-08-02T11:45:00,1,20882851,195096
OK,128,61,960,128,2014-08-02T11:50:00,1,20883300,195096
OK,116,68,960,116,2014-08-02T11:55:00,2,20883749,195096
OK,109,72,960,109,2014-08-02T12:00:00,1,20884198,195096
OK,109,72,960,109,2014-08-02T12:05:00,0,20884647,195096
OK,121,65,960,121,2014-08-02T12:10:00,3,20885096,195096
OK,121,65,960,121,2014-08-02T12:15:00,3,20885545,195096
OK,129,61,960,129,2014-08-02T12:20:00,1,20885994,195096
OK,149,53,960,149,2014-08-02T12:25:00,1,20886443,195096
OK,139,57,960,139,2014-08-02T12:30:00,3,20886892,195096
OK,139,57,960,139,2014-08-02T12:35:00,3,20887341,195096
OK,150,52,960,150,2014-08-02T12:40:00,3,20887790,195096
OK,141,56,960,141,2014-08-02T12:45:00,2,20888239,195096
OK,151,52,960,151,2014-08-02T12:50:00,0,20888688,195096
OK,151,52,960,151,2014-08-02T12:55:00,0,20889137,195096
OK,124,63,960,124,2014-08-02T13:00:00,1,20889586,195096
OK,124,63,960,124,2014-08-02T13:05:00,1,20890035,195096
OK,124,63,960,124,2014-08-02T13:10:00,0,20890484,195096
OK,124,63,960,124,2014-08-02T13:15:00,0,20890933,195096
OK,118,67,960,118,2014-08-02T13:20:00,2,20891382,195096
OK,118,67,960,118,2014-08-02T13:25:00,2,20891831,195096
OK,120,66,960,120,2014-08-02T13:30:00,1,20892280,195096
OK,120,66,960,120,2014-08-02T13:35:00,1,20892729,195096
OK,120,66,960,120,2014-08-02T13:40:00,1,20893178,195096
OK,127,62,960,127,2014-08-02T13:45:00,2,20893627,195096
OK,124,63,960,124,2014-08-02T13:50:00,3,20894076,195096
OK,122,65,960,122,2014-08-02T13:55:00,2,20894525,195096
OK,122,65,960,122,2014-08-02T14:00:00,0,20894974,195096
OK,122,65,960,122,2014-08-02T14:05:00,0,20895423,195096
OK,126,62,960,126,2014-08-02T14:10:00,1,20895872,195096
OK,131,60,960,131,2014-08-02T14:15:00,1,20896321,195096
OK,131,60,960,131,2014-08-02T14:20:00,0,20896770,195096
OK,134,59,960,134,2014-08-02T14:25:00,1,20897219,195096
OK,134,59,960,134,2014-08-02T14:30:00,4,20897668,195096
OK,134,59,960,134,2014-08-02T14:35:00,6,20898117,195096
OK,134,59,960,134,2014-08-02T14:40:00,1,20898566,195096
OK,133,59,960,133,2014-08-02T14:45:00,1,20899015,195096
OK,136,58,960,136,2014-08-02T14:50:00,3,20899464,195096
OK,136,58,960,136,2014-08-02T14:55:00,3,20899913,195096
OK,134,59,960,134,2014-08-02T15:00:00,2,20900362,195096
OK,142,55,960,142,2014-08-02T15:05:00,1,20900811,195096
OK,145,54,960,145,2014-08-02T15:10:00,1,20901260,195096
OK,135,58,960,135,2014-08-02T15:15:00,2,20901709,195096
OK,125,63,960,125,2014-08-02T15:20:00,2,20902158,195096
OK,130,61,960,130,2014-08-02T15:25:00,2,20902607,195096
OK,141,56,960,141,2014-08-02T15:30:00,2,20903056,195096
OK,132,60,960,132,2014-08-02T15:35:00,2,20903505,195096
OK,111,71,960,111,2014-08-02T15:40:00,1,20903954,195096
OK,111,71,960,111,2014-08-02T15:45:00,0,20904403,195096
OK,111,71,960,111,2014-08-02T15:50:00,0,20904852,195096
OK,151,52,960,151,2014-08-02T15:55:00,1,20905301,195096
OK,139,57,960,139,2014-08-02T16:00:00,2,20905750,195096
OK,128,61,960,128,2014-08-02T16:05:00,0,20906199,195096
OK,121,65,960,121,2014-08-02T16:10:00,1,20906648,195096
OK,121,65,960,121,2014-08-02T16:15:00,1,20907097,195096
OK,120,66,960,120,2014-08-02T16:20:00,3,20907546,195096
OK,129,61,960,129,2014-08-02T16:25:00,4,20907995,195096
OK,115,68,960,115,2014-08-02T16:30:00,1,20908444,195096
OK,124,63,960,124,2014-08-02T16:35:00,2,20908893,195096
OK,145,54,960,145,2014-08-02T16:40:00,2,20909342,195096
OK,140,56,960,140,2014-08-02T16:45:00,2,20909791,195096
OK,123,64,960,123,2014-08-02T16:50:00,0,20910240,195096
OK,123,64,960,123,2014-08-02T16:55:00,0,20910689,195096
OK,123,64,960,123,2014-08-02T17:00:00,0,20911138,195096
OK,123,64,960,123,2014-08-02T17:05:00,0,20911587,195096
OK,123,64,960,123,2014-08-02T17:10:00,0,20912036,195096
OK,123,64,960,123,2014-08-02T17:15:00,0,20912485,195096
OK,99,80,960,99,2014-08-02T17:20:00,1,20912934,195096
OK,99,80,960,99,2014-08-02T17:25:00,1,20913383,195096
OK,137,57,960,137,2014-08-02T17:30:00,1,20913832,195096
OK,137,57,960,137,2014-08-02T17:35:00,3,20914281,195096
OK,237,33,960,237,2014-08-02T17:40:00,1,20914730,195096
OK,237,33,960,237,2014-08-02T17:45:00,0,20915179,195096
OK,237,33,960,237,2014-08-02T17:50:00,0,20915628,195096
OK,237,33,960,237,2014-08-02T17:55:00,0,20916077,195096
OK,139,57,960,139,2014-08-02T18:00:00,2,20916526,195096
OK,139,57,960,139,2014-08-02T18:05:00,2,20916975,195096
OK,132,60,960,132,2014-08-02T18:10:00,1,20917424,195096
OK,132,60,960,132,2014-08-02T18:15:00,0,20917873,195096
OK,132,60,960,132,2014-08-02T18:20:00,0,20918322,195096
OK,132,60,960,132,2014-08-02T18:25:00,0,20918771,195096
OK,132,60,960,132,2014-08-02T18:30:00,0,20919220,195096
OK,118,67,960,118,2014-08-02T18:35:00,2,20919669,195096
OK,118,67,960,118,2014-08-02T18:40:00,2,20920118,195096
OK,96,82,960,96,2014-08-02T18:45:00,1,20920567,195096
OK,138,57,960,138,2014-08-02T18:50:00,1,20921016,195096
OK,138,57,960,138,2014-08-02T18:55:00,1,20921465,195096
OK,138,57,960,138,2014-08-02T19:00:00,0,20921914,195096
OK,125,63,960,125,2014-08-02T19:05:00,1,20922363,195096
OK,125,63,960,125,2014-08-02T19:10:00,1,20922812,195096
OK,122,65,960,122,2014-08-02T19:15:00,1,20923261,195096
OK,122,65,960,122,2014-08-02T19:20:00,1,20923710,195096
OK,142,55,960,142,2014-08-02T19:25:00,1,20924159,195096
OK,130,61,960,130,2014-08-02T19:30:00,2,20924608,195096
OK,118,67,960,118,2014-08-02T19:35:00,1,20925057,195096
OK,118,67,960,118,2014-08-02T19:40:00,0,20925506,195096
OK,132,60,960,132,2014-08-02T19:45:00,1,20925955,195096
OK,132,60,960,132,2014-08-02T19:50:00,1,20926404,195096
OK,132,60,960,132,2014-08-02T19:55:00,0,20926853,195096
OK,132,60,960,132,2014-08-02T20:00:00,1,20927302,195096
OK,133,59,960,133,2014-08-02T20:05:00,1,20927751,195096
OK,133,59,960,133,2014-08-02T20:10:00,1,20928200,195096
OK,133,59,960,133,2014-08-02T20:15:00,0,20928649,195096
OK,112,70,960,112,2014-08-02T20:20:00,1,20929098,195096
OK,112,70,960,112,2014-08-02T20:25:00,1,20929547,195096
OK,112,70,960,112,2014-08-02T20:30:00,0,20929996,195096
OK,112,70,960,112,2014-08-02T20:35:00,0,20930445,195096
OK,112,70,960,112,2014-08-02T20:40:00,0,20930894,195096
OK,112,70,960,112,2014-08-02T20:45:00,0,20931343,195096
OK,112,70,960,112,2014-08-02T20:50:00,0,20931792,195096
OK,146,54,960,146,2014-08-02T20:55:00,1,20932241,195096
OK,146,54,960,146,2014-08-02T21:00:00,1,20932690,195096
OK,146,54,960,146,2014-08-02T21:05:00,0,20933139,195096
OK,146,54,960,146,2014-08-02T21:10:00,0,20933588,195096
OK,146,54,960,146,2014-08-02T21:15:00,0,20934037,195096
OK,130,61,960,130,2014-08-02T21:20:00,1,20934486,195096
OK,130,61,960,130,2014-08-02T21:25:00,1,20934935,195096
OK,131,60,960,131,2014-08-02T21:30:00,3,20935384,195096
OK,133,59,960,133,2014-08-02T21:35:00,1,20935833,195096
OK,133,59,960,133,2014-08-02T21:40:00,0,20936282,195096
OK,133,59,960,133,2014-08-02T21:45:00,0,20936731,195096
OK,133,59,960,133,2014-08-02T21:50:00,0,20937180,195096
OK,148,53,960,148,2014-08-02T21:55:00,1,20937629,195096
OK,148,53,960,148,2014-08-02T22:00:00,0,20938078,195096
OK,148,53,960,148,2014-08-02T22:05:00,0,20938527,195096
OK,148,53,960,148,2014-08-02T22:10:00,0,20938976,195096
OK,127,62,960,127,2014-08-02T22:15:00,1,20939425,195096
OK,125,63,960,125,2014-08-02T22:20:00,1,20939874,195096
OK,125,63,960,125,2014-08-02T22:25:00,1,20940323,195096
OK,125,63,960,125,2014-08-02T22:30:00,0,20940772,195096
OK,125,63,960,125,2014-08-02T22:35:00,0,20941221,195096
OK,125,63,960,125,2014-08-02T22:40:00,0,20941670,195096
OK,125,63,960,125,2014-08-02T22:45:00,0,20942119,195096
OK,125,63,960,125,2014-08-02T22:50:00,0,20942568,195096
OK,125,63,960,125,2014-08-02T22:55:00,0,20943017,195096
OK,125,63,960,125,2014-08-02T23:00:00,0,20943466,195096
OK,125,63,960,125,2014-08-02T23:10:00,0,20943915,195096
OK,125,63,960,125,2014-08-02T23:15:00,0,20944364,195096
OK,125,63,960,125,2014-08-02T23:20:00,0,20944813,195096
OK,125,63,960,125,2014-08-02T23:25:00,0,20945262,195096
OK,125,63,960,125,2014-08-02T23:30:00,0,20945711,195096
OK,125,63,960,125,2014-08-02T23:35:00,0,20946160,195096
OK,125,63,960,125,2014-08-02T23:40:00,0,20946609,195096
OK,125,63,960,125,2014-08-02T23:45:00,0,20947058,195096
OK,125,63,960,125,2014-08-02T23:50:00,0,20947507,195096
OK,125,63,960,125,2014-08-02T23:55:00,0,20947956,195096
OK,112,70,960,112,2014-08-03T00:00:00,1,20948405,195096
OK,112,70,960,112,2014-08-03T00:05:00,0,20948854,195096
OK,112,70,960,112,2014-08-03T00:10:00,0,20949302,195096
OK,112,70,960,112,2014-08-03T00:15:00,0,20949751,195096
OK,112,70,960,112,2014-08-03T00:20:00,0,20950200,195096
OK,137,57,960,137,2014-08-03T00:25:00,1,20950649,195096
OK,137,57,960,137,2014-08-03T00:30:00,0,20951098,195096
OK,137,57,960,137,2014-08-03T00:35:00,0,20951547,195096
OK,137,57,960,137,2014-08-03T00:40:00,0,20951996,195096
OK,137,57,960,137,2014-08-03T00:45:00,0,20952445,195096
OK,137,57,960,137,2014-08-03T00:50:00,0,20952894,195096
OK,137,57,960,137,2014-08-03T00:55:00,0,20953343,195096
OK,137,57,960,137,2014-08-03T01:00:00,0,20953792,195096
OK,137,57,960,137,2014-08-03T01:05:00,0,20954241,195096
OK,137,57,960,137,2014-08-03T01:10:00,0,20954690,195096
OK,137,57,960,137,2014-08-03T01:15:00,0,20955139,195096
OK,137,57,960,137,2014-08-03T01:20:00,0,20955588,195096